Flag for Netherlands Weather past 2 weeks in Wageningen, Netherlands

Now
64 °F

Scattered clouds.


Feels Like: 64 °F
Forecast: 48 / 61 °F
Wind: 16 mph from North

Location: Deelen

Current Time: Sep 21, 2014 at 2:09:27 PM

Latest Report: Sep 21, 2014 at 1:55 PM


Visibility: N/A

Pressure: 30.07 "Hg

Humidity: 52%

Dew point: 46 °F

Location of WageningenLocation

Historic Weather in Wageningen — Graph

°F

Wageningen temperature yesterday

Maximum temperature yesterday: 73 °F (at 1:55 PM)
Minimum temperature yesterday: 54 °F (at 3:55 AM)
Average temperature yesterday: 61 °F

Past Weeks' High & Low Weather Summary

 TemperatureHumidityPressure
High77 °F (Sep 17, 2:55 PM)100% (Sep 6, 11:55 PM)30.27 "Hg (Sep 6, 11:55 PM)
Low45 °F (Sep 12, 6:25 AM)43% (Sep 8, 4:55 PM)29.83 "Hg (Sep 18, 5:25 AM)
Average62 °F84%30.03 "Hg
* Reported Sep 6 12:25 PM — Sep 21 12:55 PM, Wageningen, Weather by CustomWeather, © 2014

Note: Actual official high and low records may vary slightly from our data, if they occured in-between our weather recording intervals... More about our weather records

Advertising

Wageningen weather history for previous 24 hours

 ConditionsComfort  
Time TempWeatherWind HumidityBarometerVisibility
12:55 PM
Sep 21
63 °FScattered clouds.15 mph59%30.04 "HgN/A
12:25 PM63 °FScattered clouds.16 mph64%30.04 "HgN/A
11:55 AM63 °FPartly sunny.13 mph68%30.04 "HgN/A
11:25 AM63 °FPartly sunny.12 mph73%30.04 "HgN/A
10:55 AM63 °FBroken clouds.16 mph77%30.04 "HgN/A
10:25 AM59 °FPartly sunny.9 mph88%30.04 "HgN/A
9:55 AM59 °FMostly cloudy.7 mph94%30.04 "HgN/A
9:25 AM59 °FMostly cloudy.9 mph88%30.01 "HgN/A
8:55 AM59 °FOvercast.8 mph94%30.01 "HgN/A
8:25 AM59 °FBroken clouds.13 mph94%30.01 "HgN/A
7:55 AM59 °FPartly cloudy.10 mph100%29.98 "Hg4 mi
7:25 AM59 °FPartly cloudy.6 mph100%29.98 "Hg4 mi
6:55 AM59 °FLight rain. Partly cloudy.5 mph100%29.98 "Hg4 mi
6:25 AM59 °FRain showers. Partly cloudy.10 mph94%29.98 "Hg2 mi
5:55 AM61 °FFog.3 mph100%29.98 "Hg2 mi
5:25 AM61 °FFog.3 mph94%29.98 "Hg2 mi
4:55 AM61 °FFog.6 mph94%29.98 "Hg2 mi
4:25 AM59 °FFog.3 mph100%29.98 "Hg2 mi
3:55 AM59 °FFog.2 mph100%29.98 "Hg1 mi
3:25 AM59 °FFog.2 mph100%29.98 "Hg1 mi
2:55 AM59 °FFog.3 mph100%29.98 "Hg1 mi
1:55 AM59 °FFog.2 mph100%29.98 "Hg1 mi
1:25 AM61 °FFog.2 mph94%29.98 "Hg2 mi
12:55 AM61 °FFog.5 mph100%29.98 "Hg2 mi
12:25 AM63 °FFog.6 mph94%29.98 "Hg2 mi
11:55 PM
Sep 20
63 °FFog.6 mph94%29.98 "Hg2 mi
11:25 PM63 °FFog.7 mph94%29.98 "Hg2 mi
10:55 PM63 °FFog.5 mph94%29.98 "Hg2 mi
10:25 PM61 °FFog.6 mph100%29.98 "Hg2 mi
9:55 PM63 °FFog.6 mph94%29.98 "Hg2 mi
9:25 PM63 °FFog.7 mph94%29.98 "Hg2 mi
8:55 PM63 °FFog.9 mph100%29.95 "Hg2 mi
8:25 PM63 °FThunderstorms. Fog.5 mph100%29.95 "Hg1 mi
7:55 PM64 °FFog.5 mph94%29.95 "Hg2 mi
3:25 PM72 °FThunderstorms. Passing clouds.9 mph73%29.92 "HgN/A
2:55 PM70 °FThunderstorms. Broken clouds.10 mph88%29.92 "Hg3 mi
2:25 PM72 °FPartly sunny.6 mph73%29.92 "Hg4 mi
Weather by CustomWeather, © 2014

See weather overviewHow to use our weather pages